Regional Weather Roundup
Issued by NWS Grand Forks, ND

Home | Current Version | Previous Version | Graphics & Text | Print | Product List | Glossary On
Versions: 1 2 3 4 5 6 7 8 9 10 11 12 13 14 15 16 17 18 19 20 21 22 23 24 25 26 27 28 29 30 31 32 33 34 35 36 37 38 39 40 41 42 43 44 45 46 47 48 49 50
897
ASUS43 KFGF 190431
RWRFGF
PRAIRIE TO PINES  WEATHER ROUNDUP
NATIONAL WEATHER SERVICE EASTERN NORTH DAKOTA/GRAND FORKS ND
1100 PM CDT WED OCT 18 2017

 **SATELLITE DATA USED TO AUGMENT SKY COVER AT AUTOMATED STATIONS**
 *****  WEATHER ACROSS EASTERN NORTH DAKOTA  *****

CITY           SKY/WX    TMP DP  RH WIND       PRES   REMARKS
GRAND FORKS    FAIR      49  24  37 W10       29.88S
GRAND FRKS AFB FAIR      50  23  34 W15G23    29.88R
DEVILS LAKE    FAIR      44  29  55 SW12      29.90S
FARGO          FAIR      45  26  47 SW12      29.94S
WAHPETON ARPT  NOT AVBL
$$

 ***** WEATHER ACROSS CENTRAL AND WESTERN NORTH DAKOTA  *****

CITY           SKY/WX    TMP DP  RH WIND       PRES   REMARKS
BISMARCK       FAIR      41  25  53 CALM      29.94F
MINOT          FAIR      42  24  49 SW8       29.87F
JAMESTOWN      FAIR      44  26  49 SW6       29.94F
MINOT AFB      FAIR      34  22  59 W3        29.86F
GARRISON         N/A     36  24  62 S3        29.90S
WILLISTON      FAIR      33  26  75 CALM      29.85F
DICKINSON      FAIR      37  25  61 S9        29.89F
HETTINGER      FAIR      43  25  49 SE5       29.94F
$$

 *****  OTHER AIRPORT OBSERVATIONS IN OUR AREA  *****

CITY           SKY/WX    TMP DP  RH WIND       PRES   REMARKS
WALHALLA       FAIR     N/A N/A N/A W14G23    29.82S
GRAFTON AIRPOR FAIR      48  27  43 W14       29.87F
VALLEY CITY AR FAIR      41  27  56 SW12      29.96F
CANDO          FAIR      36  23  60 SW9       29.90S
CAVALIER APRT  FAIR      48  19  32 W14       29.83S
GWINNER          N/A     39  30  70 CALM      29.98S
SHEYENNE NWR     N/A     39  28  63 W2        29.95
ROLLA          FAIR      45  14  29 W12       29.86S
 ***** THE ABOVE OBSERVATIONS ARE NON NWS ARE NOT QUALITY
       CONTROLLED AND MAY MIS-REPORT RAIN FOR SNOW...
$$

  *****  WEATHER ACROSS NORTHERN MINNESOTA  *****

CITY           SKY/WX    TMP DP  RH WIND       PRES   REMARKS
FLAG ISLAND    FAIR      52  14  22 W21G31    29.70R
WARROAD        FAIR      48  21  34 W18G25    29.77R
ROSEAU         FAIR      48  18  29 W15G22    29.79R
HALLOCK        FAIR      46  16  29 W13       29.83S
THF RVR FALLS  FAIR      47  21  35 W17       29.87S
BAUDETTE       FAIR      50  15  24 W15G31    29.77R
WASKISH        FAIR      50  30  46 W17G26    29.83R
CROOKSTON      FAIR      46  23  39 W12       29.90S
STEPHEN NDAWN    N/A     46  23  39 W12         N/A
GREENBUSH NDAW   N/A     46  19  34 W15         N/A
$$
  *****  WEATHER ACROSS CENTRAL AND WEST MINNESOTA  *****

CITY           SKY/WX    TMP DP  RH WIND       PRES   REMARKS
FOSSTON        FAIR      43  19  39 W9        29.90S
BEMIDJI        FAIR      47  20  34 W13       29.88R
PARK RAPIDS    FAIR      48  23  37 W13       29.92R
ELBOW LAKE     FAIR      41  31  67 SW8       29.99S
WADENA         FAIR      43  27  52 W6        29.95S
DETROIT LAKES  FAIR      50  25  37 W10G16    29.95S
MOORHEAD       FAIR      45  25  45 SW5       29.95S
FERGUS FALLS   FAIR      39  28  65 SW5       29.99R
MORRIS MN      FAIR      43  34  70 W8        29.99F
STAPLES        FAIR      43  25  49 W6        29.95S
$$
  *****  WEATHER ELSEWHERE ACROSS MINNESOTA  *****

CITY           SKY/WX    TMP DP  RH WIND       PRES   REMARKS
DULUTH         FAIR      46  19  34 W13       29.86R
INTRNTL FALLS  FAIR      50  14  23 W15G23    29.75R
ELY            FAIR      48  14  25 W15G22    29.78S
CLOQUET        FAIR      50  10  20 W12       29.89R
WHEATON        FAIR      45  30  57 SW7       30.01S
BRAINERD       FAIR      47  22  37 W9        29.94S
HIBBING        FAIR      47  17  30 W7        29.84R
ALEXANDRIA     FAIR      45  28  51 SW6       30.00R
SAINT CLOUD    FAIR      46  30  53 W8        29.99S
MINNEAPOLIS    FAIR      55  28  35 W12       30.01R
$$

  *****  WEATHER ACROSS SOUTH DAKOTA  *****

CITY           SKY/WX    TMP DP  RH WIND       PRES   REMARKS
SIOUX FALLS    FAIR      44  36  73 NW3       30.06R
BROOKINGS      FAIR      43  31  62 CALM      30.06S
WATERTOWN      FAIR      40  32  73 SW7       30.03S
HURON          FAIR      40  34  79 CALM      30.04S
SISSETON         N/A     46  30  53 SW6       29.99S
ABERDEEN       FAIR      37  29  72 S7        30.01F
MITCHELL       FAIR      42  36  79 CALM      30.05F
PIERRE         FAIR      46  30  53 SE6       30.00F
MOBRIDGE       FAIR      45  37  73 SE9       29.95F
RAPID CITY     FAIR      47  29  49 SE7       29.97F
$$

  *****  SOME WEATHER IN NEARBY STATES *****

CITY           SKY/WX    TMP DP  RH WIND       PRES   REMARKS
GLASGOW MT     FAIR      46  29  51 SE13      29.77F
GREAT FALLS MT FAIR      57  31  37 SW20      29.73F
CHEYENNE WY    FAIR      46  22  38 W7        30.18S
SCOTTSBLUFF NE FAIR      47  31  53 E9        30.08S
OMAHA NE       FAIR      52  46  80 NW7       30.04R
DES MOINES IA  CLOUDY    57  49  74 S3        30.03S
DAVENPORT IA   FAIR      58  43  57 S8        30.06F
CHICAGO IL     FAIR      63  43  48 SW14      30.05R
EAU CLAIRE WI  FAIR      53  24  32 W14       29.97R
LA CROSSE WI   FAIR      60  35  39 NW9       29.98R
$$

  *****  SOME NATIONAL WEATHER *****

CITY           SKY/WX    TMP DP  RH WIND       PRES   REMARKS
LA GUARDIA NY  FAIR      64  47  53 SW8       30.27F
RALEIGH NC     FAIR      46  45  96 CALM      30.33S
ATLANTA GA     FAIR      55  45  68 E6        30.29F
NEW ORLEANS LA FAIR      67  59  75 E6        30.19S
OKLAHOMA CITY  MOCLDY    57  47  69 S8        30.08R
ALBUQUERQUE NM MOCLDY    59  25  27 SW10      30.16R
SALT LAKE CITY FAIR      54  33  45 SE7       30.08F
LOS ANGELES CA FAIR      69  59  70 W13       29.90R
BOISE ID       FAIR      63  28  26 SE14      29.90F
SEATTLE WA     RAIN      56  55  97 SW10      29.63R FOG
$$

*** WEATHER ACROSS MANITOBA...SASKATCHEWAN AND ONTARIO ***
                ***ONTARIO***

CITY           SKY/WX    TMP DP  RH WIND       PRES   REMARKS
GERALDTON      CLEAR     50  18  27 SW13G30   29.52F
THUNDER BAY    CLEAR     54  18  24 W15G22    29.66S
SIOUX LOOKOUT  CLEAR     50  14  23 W18G31    29.53S
TORONTO        CLEAR     54  43  66 S3        30.08S
BIG TROUT LK   LGT RAIN  39  37  93 W24G36    29.13S
PICKLE LAKE    NOT AVBL
DRYDEN         CLEAR     50  14  23 W21G33    29.58R
KENORA         CLEAR     48  12  23 W16G25    29.65R
$$
                *** MANITOBA***

CITY           SKY/WX    TMP DP  RH WIND       PRES   REMARKS
BRANDON        CLEAR     41  16  36 W14       29.79S
DAUPHIN        CLEAR     45  14  29 W21G28    29.70R
ISLAND LAKE    LGT RAIN  37  32  81 W26G43    29.28R
PILOT MOUND      N/A     45  14  29 W10G17      N/A
THE PAS        CLEAR     36  25  64 NW21      29.60
THOMPSON       FLURRIES  32  30  93 NW9G20    29.37R WCI  24
WINNIPEG       CLEAR     46  14  27 W16       29.74R
LYNN LAKE      FLURRIES  28  28 100 N10G17    29.56R WCI  19
CHURCHILL      FLURRIES  34  32  93 NE36G45   29.32R WCI  19
GILLAM         DRIZZLE   34  32  93 N18G28    29.15R WCI  23
$$
                ***SASKATCHEWAN***

CITY           SKY/WX    TMP DP  RH WIND       PRES   REMARKS
ESTEVAN        PTCLDY    32  19  59 S7        29.83F
KINDERSLEY     MOCLDY    43  19  39 SE20G26   29.54F
LLOYDMINSTER   MOCLDY    39  19  45 SE17      29.51F
PRINCE ALBERT  PTCLDY    27  19  74 SE3       29.69F
REGINA         CLEAR     32  16  51 S9        29.76F WCI  24
YORKTON        CLEAR     36  16  44 SW10      29.74R
N. BATTLEFORD  CLEAR     36  16  44 SE13      29.61F
LA RONGE       LGT SNOW  32  30  93 N6        29.66R
SASKATOON      MOCLDY    36  16  44 SE9       29.68F
SWIFT CURRENT  PTCLDY    45  19  36 S17       29.63F
$$
NOTE: THESE ARE AUTOMATED STATIONS WITH LIMITED QUALITY CONTROL
      "FAIR" INDICATES FEW OR NO CLOUDS BELOW 12,000 FEET WITH NO
      SIGNIFICANT WEATHER AND/OR OBSTRUCTIONS TO VISIBILITY.
      SKY/WX - SKY CONDITION AND SIGNIFICANT WEATHER.
      TMP - AIR TEMPERATURE.    DP   - DEWPOINT TEMPERATURE.
      RH  - RELATIVE HUMIDITY.  PRES - PRESSURE.
      HX  - HEAT INDEX.         WCI  - WIND CHILL INDEX.
$




USA.gov is the U.S. government's official web portal to all federal, state and local government web resources and services.